Regional Weather Roundup
Issued by NWS

Home | Current Version | Previous Version | Graphics & Text | Print | Product List | Glossary On
Versions: 1 2 3 4 5 6 7 8 9 10 11 12 13 14 15 16 17 18 19 20 21 22 23 24 25 26 27 28 29 30 31 32 33 34 35 36 37 38 39 40 41 42 43 44 45 46 47 48 49 50
000
ASUS45 KBOU 020907
RWRCO

WEATHER ROUNDUP FOR COLORADO
NATIONAL WEATHER SERVICE DENVER/BOULDER CO
300 AM MDT THU APR 02 2015

NOTE: "FAIR" INDICATES FEW OR NO CLOUDS BELOW 12000 FEET WITH NO
SIGNIFICANT WEATHER AND/OR OBSTRUCTIONS TO VISIBILITY.

COZ001>005-013-030-031-021000-
...NORTHWEST COLORADO...

CITY           SKY/WX    TMP DP  RH WIND       PRES   REMARKS
CRAIG          CLOUDY    31  12  45 CALM      29.94F
HAYDEN         CLOUDY    32   9  37 CALM      29.93F
MEEKER         CLOUDY    39   6  25 E7        29.90F
MOUNT WERNER   NOT AVBL
STEAMBOAT SPGS CLOUDY    30  16  54 SE3       29.94S
WALDEN         MOCLDY    25   5  42 N6        29.94F WCI  18
$$

COZ006>008-011-021000-
...WEST CENTRAL VALLEYS...

CITY           SKY/WX    TMP DP  RH WIND       PRES   REMARKS
GRAND JUNCTION CLOUDY    47   6  18 NW5       29.82F
MONTROSE       CLOUDY    42  25  50 SE7       29.88F
EAGLE          CLOUDY    39  18  41 E5        29.92F
RIFLE          CLOUDY    44   9  23 W3        29.87F
DELTA          CLOUDY    48  15  26 N5        29.85S
NUCLA          CLOUDY    43  23  45 E7        29.89F
$$

COZ017>023-064>068-021000-
...SOUTHWEST COLORADO...

CITY           SKY/WX    TMP DP  RH WIND       PRES   REMARKS
DURANGO        PTCLDY    32  19  58 E3        29.94S
CORTEZ         CLEAR     39  16  39 E9        29.90S
PAGOSA SPRINGS MOCLDY    35  19  53 CALM      29.97S
TELLURIDE      NOT AVBL
WOLF CREEK PAS MOCLDY    27   9  46 SW25G37   30.09F WCI  11
$$

COZ009-010-012-014-032>034-037-058>063-021000-
...CENTRAL COLORADO...

CITY           SKY/WX    TMP DP  RH WIND       PRES   REMARKS
ASPEN          CLOUDY    36  22  56 S5        29.91F
BUENA VISTA    CLOUDY    36  24  63 CALM      29.93S
COPPER MTN     LGT SNOW  28  16  59 SW7       30.02S WCI  21
BERTHOUD PASS  CLOUDY    19  12  73 W13G20    30.03R WCI   7
COTTONWOOD PAS CLOUDY    37  18  44 SE6       29.97F
GUNNISON       CLOUDY    36  27  69 CALM      29.96S
KREMMLING      CLOUDY    36   5  27 W3        29.96S
LEADVILLE      MOCLDY    28  17  63 NE7       29.96F WCI  21
SALIDA         CLOUDY    37  26  66 CALM      30.00S
SUNLIGHT       CLOUDY    30   3  31 CALM      30.00F
WILKERSON PASS MOCLDY    28  18  64 SW3       30.03S
$$

COZ069>075-021000-
...SAN LUIS VALLEY/SANGRE DE CRISTO MOUNTAINS...

CITY           SKY/WX    TMP DP  RH WIND       PRES   REMARKS
ALAMOSA        MOCLDY    25  18  74 S6        29.94F WCI  18
LA VETA PASS   MOCLDY    34  14  44 S8G22     30.03S WCI  27
SAGUACHE       CLOUDY    36  19  51 CALM      29.95S
$$

COZ035-036-038>040-021000-
...NORTHERN COLORADO FRONT RANGE...

CITY           SKY/WX    TMP DP  RH WIND       PRES   REMARKS
DENVER INTL AP MOCLDY    37  28  70 NW7       29.94S
DMNS CITY PARK   N/A     41  24  52 N7        29.94F
AURORA         MOCLDY    35  29  79 N2        29.94F
FRONT RANGE AP CLOUDY    36  32  87 NW6       29.95S
ERIE MUNI ARPT CLOUDY    40  31  70 NW5       29.96S
BOULDER MUN AP CLOUDY    41  27  56 NW3       29.96S
CENTENNIAL     CLOUDY    39  29  67 NE5       29.94F
BROOMFIELD     CLOUDY    41  28  60 N9        29.96S
FORT COLLINS   CLOUDY    39  25  56 NW6       29.97S
LONGMONT       CLOUDY    43  28  56 CALM      29.99R
$$

COZ041-046-047-076>085-087-088-021000-
...PIKES PEAK/PALMER DIVIDE AND SOUTHERN FOOTHILLS...

CITY           SKY/WX    TMP DP  RH WIND       PRES   REMARKS
COLO. SPRINGS  MOCLDY    42  34  73 NW8       29.93S
A. F. ACADEMY  MOCLDY    37  33  87 N8        29.93S
ELLICOTT       NOT AVBL
FALCON         PTCLDY    37  35  91 N7        29.94S
FORT CARSON    PTCLDY    41  35  77 W3        29.90F
LIMON          PTCLDY    34  31  88 NW9       29.92R WCI  27
MONUMENT HILL  FOG       36  34  93 N6        29.94R VSB 1
TRINIDAD       MOCLDY    38  28  67 NW5       29.90S
$$

COZ042>045-048>051-090-091-021000-
...NORTHEAST COLORADO...

CITY           SKY/WX    TMP DP  RH WIND       PRES   REMARKS
GREELEY ARPT   PTCLDY    34  19  55 N8        29.93F WCI  27
AKRON          MOCLDY    32  29  88 N6        29.92S WCI  26
BURLINGTON     PTCLDY    40  33  76 N10       29.89F
WRAY           PTCLDY    39  33  77 N8        29.91S
STERLING       MOCLDY    34  30  86 N5        29.93S WCI  30
HOLYOKE        PTCLDY    37  32  81 NW10      29.92S
FORT MORGAN    MOCLDY    32  24  72 N8        29.95R WCI  25
$$

COZ086-089-092>099-021000-
...SOUTHEAST COLORADO...

CITY           SKY/WX    TMP DP  RH WIND       PRES   REMARKS
PUEBLO         CLEAR     43  36  76 N8        29.90R
LA JUNTA       CLEAR     46  38  73 MISG      29.90R
LAMAR          CLEAR     40  35  83 S5        29.85S
SPRINGFIELD      N/A     40  35  83 NW7       29.88R
$$


USA.gov is the U.S. government's official web portal to all federal, state and local government web resources and services.